{"data":{"norad_id":52269,"intl_designator":"2022-041J","name":"STARLINK-3791","alt_names":[],"object_type":"PAYLOAD","status":"ACTIVE","operator":null,"country":"US","launch_date":"2022-04-21","launch_site_code":"AFETR","launch_vehicle":null,"mission":null,"orbit_class":"UNKNOWN","rcs_meters":null,"size_class":null,"mass_kg":null,"dimensions":null,"purposes":["comms"],"wikipedia_slug":null,"has_3d_model":false,"image_url":null,"decayed_at":null,"tle_current":{"epoch":"2026-09-20T03:18:58.059072Z","epoch_age_seconds":90775,"freshness":"FRESH","line1":"1 52269U 22041J   26263.13817198 -.00000043  00000+0  96745-5 0  9993","line2":"2 52269  53.1618 309.5631 0000916  52.1987 307.9099 15.35404596243801","mean_motion":15.35404596,"eccentricity":9.16e-5,"inclination_deg":53.1618,"raan_deg":309.5631,"arg_perigee_deg":52.1987,"mean_anomaly_deg":307.9099,"bstar":9.6745e-6,"rev_number":24380,"period_min":93.786354668434,"perigee_km":459.09264971014,"apogee_km":460.34534492885,"semimajor_km":6837.8559973195,"source":"CELESTRAK","updated_at":"2026-09-20T09:00:40.012354Z"}}}